HOME
ABOUT US
SERVICES
WEATHER INFORMATION
MEDIA CENTER
CARGO SERVICES
ENTRY PASS
TOURIST INFORMATION
CAREERS
AIRPORT MANAGEMENT TEAM
CONTACT US
 
  SUBMIT
 
 
WEATHER - TAF
The most recent TAF in our system was generated at the source at:

30/01/2015 18:25:46  UTC

TAF OMFJ 301700Z 3018/3124 VRB03KT 6000 NSC BECMG 3020/3022 27006KT TEMPO 3022/3105 4000 HZ BECMG 3107/3109 11010KT 8000 BECMG 3114/3116 VRB03KT

The information available here could be used for flight planning or other operational purposes. For further information on this aspect, please contact Fujairah International Airport Authority.

For further enquiries, please contact MET Section of Airport at :-
Email : met@fujairah-airport.com
Tel : +971 9 2055507
Fax : +971 9 2223149
Contat Us | Suggestions & Complaints | Links | Location Map | Employee Mail Copyright (c) 2013 Fujairah International Airport | All Rights Reserved.